Date String (YYYY-MM-DD hh:mm:ss) UTC,Instrument flags,absolute air pressure of the measurement (hPa),sample flow rate (lpm),inlet stack bypass flow (lpm),air temperature of the measurement (°C),ambient temperature measured by the external sensor (°C),aerosol sample conditioner tube jacket temperature (°C),OPC LED temperature (°C),internal box temperature (°C),relative humidity of the measurement (%),span deviation,mass concentration of particles derived from Lorenz-Mie calculation of OPC scattering (μg/m³),mass concentration of particles derived from Lorenz-Mie calculation of OPC scattering (μg/m³),mass concentration of particles derived from Lorenz-Mie calculation of OPC scattering (μg/m³)
DateTimeUTC,F1_M11,P_M11,Q1_M11,Q2_M11,T1_M11,T2_M11,T3_M11,T4_M11,T5_M11,U1_M11,ZSPAN_M11,X2_M11,X0_M11,X1_M11
2023-09-30 08:00:00,SystemResetWarning,0828.4,5.00,000.00,028.7,027.6,000.0,037.1,030.5,19.8,0000.0,0006.38,0021.35,0004.37
2023-09-30 08:01:00,SystemResetWarning,0828.4,5.00,000.00,028.8,027.6,000.0,037.1,030.5,19.7,0000.0,0006.17,0020.57,0004.34
2023-09-30 08:02:00,SystemResetWarning,0828.4,5.00,000.00,028.8,027.6,000.0,037.2,030.5,19.6,0000.0,0006.06,0020.75,0004.32
2023-09-30 08:03:00,SystemResetWarning,0828.4,5.01,000.00,028.8,027.6,000.0,037.2,030.5,19.9,0000.0,0005.99,0019.99,0004.29
2023-09-30 08:04:00,SystemResetWarning,0828.4,5.00,000.00,028.8,027.6,000.0,037.2,030.6,20.1,0000.0,0005.93,0018.83,0004.27
2023-09-30 08:05:00,SystemResetWarning,0828.4,5.00,000.00,028.8,027.7,000.0,037.2,030.6,20.1,0000.0,0005.84,0018.73,0004.25
2023-09-30 08:06:00,SystemResetWarning,0828.4,5.00,000.00,028.9,027.7,000.0,037.2,030.6,20.2,0000.0,0005.74,0017.09,0004.23
2023-09-30 08:07:00,SystemResetWarning,0828.4,5.00,000.00,028.9,027.7,000.0,037.2,030.6,19.8,0000.0,0005.62,0015.34,0004.20
2023-09-30 08:08:00,SystemResetWarning,0828.4,4.99,000.00,028.9,027.7,000.0,037.3,030.6,19.3,0000.0,0005.57,0015.48,0004.19
2023-09-30 08:09:00,SystemResetWarning,0828.4,5.00,000.00,028.9,027.8,000.0,037.3,030.6,19.2,0000.0,0005.65,0016.25,0004.20
2023-09-30 08:10:00,SystemResetWarning,0828.4,5.00,000.00,028.9,026.9,000.0,037.3,030.6,19.4,0000.4,0005.71,0016.67,0004.22
2023-09-30 08:11:00,SystemResetWarning,0828.3,5.00,000.00,028.9,024.9,000.0,037.2,030.4,19.6,0000.2,0005.75,0016.80,0004.24
2023-09-30 08:12:00,SystemResetWarning,0828.3,5.01,000.00,028.8,024.3,000.0,037.1,030.2,19.8,0000.0,0005.83,0016.92,0004.27
2023-09-30 08:13:00,SystemResetWarning,0828.3,5.01,000.00,028.6,024.5,000.0,037.1,030.0,20.1,0000.0,0005.92,0017.18,0004.29
2023-09-30 08:14:00,SystemResetWarning,0828.4,4.99,000.00,028.5,024.9,000.0,037.1,030.0,20.3,0001.0,0005.97,0018.26,0004.32
2023-09-30 08:15:00,SystemResetWarning,0828.4,5.00,000.00,028.5,025.2,000.0,037.1,030.0,20.1,0001.7,0006.02,0018.74,0004.35
2023-09-30 08:16:00,SystemResetWarning,0828.3,5.00,000.00,028.4,025.6,000.0,037.1,030.0,20.2,0001.3,0006.13,0019.42,0004.38
2023-09-30 08:17:00,SystemResetWarning,0828.4,5.00,000.00,028.4,025.9,000.0,037.1,030.1,20.5,0000.0,0006.17,0019.63,0004.40
2023-09-30 08:18:00,SystemResetWarning,0828.3,4.99,000.00,028.4,026.2,000.0,037.1,030.1,20.8,0000.0,0006.19,0019.60,0004.42
2023-09-30 08:19:00,SystemResetWarning,0828.3,5.00,000.00,028.4,026.4,000.0,037.0,030.1,20.6,0000.0,0006.27,0019.15,0004.44
2023-09-30 08:20:00,SystemResetWarning,0828.3,5.01,000.00,028.4,026.6,000.0,037.0,030.1,20.5,0000.0,0006.27,0019.23,0004.44
2023-09-30 08:21:00,SystemResetWarning,0828.3,5.00,000.00,028.4,026.7,000.0,037.0,030.2,20.2,0000.0,0006.28,0019.95,0004.45
2023-09-30 08:22:00,SystemResetWarning,0828.3,5.00,000.00,028.5,026.9,000.0,037.0,030.2,20.1,0000.0,0006.31,0019.85,0004.47
2023-09-30 08:23:00,SystemResetWarning,0828.3,5.00,000.00,028.5,027.0,000.0,037.0,030.2,19.9,0000.0,0006.35,0019.68,0004.48
2023-09-30 08:24:00,SystemResetWarning,0828.3,4.99,000.00,028.5,027.1,000.0,037.0,030.2,19.8,0000.0,0006.36,0019.07,0004.50
2023-09-30 08:25:00,SystemResetWarning,0828.3,5.00,000.00,028.5,027.1,000.0,037.0,030.3,19.5,0000.0,0006.43,0018.23,0004.52
2023-09-30 08:26:00,SystemResetWarning,0828.3,5.00,000.00,028.5,027.2,000.0,037.0,030.3,19.7,0000.0,0006.49,0017.79,0004.54
2023-09-30 08:27:00,SystemResetWarning,0828.3,5.00,000.00,028.6,027.3,000.0,037.0,030.3,19.7,0000.0,0006.48,0017.33,0004.53
2023-09-30 08:28:00,SystemResetWarning,0828.3,5.00,000.00,028.6,027.3,000.0,037.0,030.4,19.5,0000.0,0006.46,0017.60,0004.53
2023-09-30 08:29:00,SystemResetWarning,0828.3,5.00,000.00,028.6,027.4,000.0,037.1,030.4,19.2,0000.0,0006.50,0019.26,0004.54
2023-09-30 08:30:00,SystemResetWarning,0828.3,5.01,000.00,028.6,027.4,000.0,037.1,030.4,19.0,0000.0,0006.54,0020.56,0004.57
2023-09-30 08:31:00,SystemResetWarning,0828.3,5.00,000.00,028.7,027.5,000.0,037.1,030.4,18.9,0000.0,0006.59,0020.12,0004.58
2023-09-30 08:32:00,SystemResetWarning,0828.4,4.99,000.00,028.7,027.5,000.0,037.1,030.4,18.9,0000.0,0006.61,0019.56,0004.60
2023-09-30 08:33:00,SystemResetWarning,0828.4,4.99,000.00,028.7,027.5,000.0,037.1,030.5,18.8,0000.0,0006.63,0020.65,0004.61
2023-09-30 08:34:00,SystemResetWarning,0828.3,5.00,000.00,028.7,027.5,000.0,037.1,030.5,18.6,0000.0,0006.65,0020.66,0004.63
2023-09-30 08:35:00,SystemResetWarning,0828.4,5.01,000.00,028.7,027.5,000.0,037.1,030.5,18.5,0000.0,0006.67,0020.73,0004.65
2023-09-30 08:36:00,SystemResetWarning,0828.3,5.00,000.00,028.8,027.6,000.0,037.1,030.5,18.4,0000.0,0006.64,0020.20,0004.66
2023-09-30 08:37:00,SystemResetWarning,0828.3,5.00,000.00,028.8,027.6,000.0,037.2,030.5,18.4,0000.0,0006.67,0020.64,0004.66
2023-09-30 08:38:00,SystemResetWarning,0828.3,4.99,000.00,028.8,027.6,000.0,037.2,030.5,18.3,0000.0,0006.72,0021.39,0004.67
2023-09-30 08:39:00,SystemResetWarning,0828.3,4.99,000.00,028.8,027.6,000.0,037.2,030.5,18.3,0000.0,0006.78,0021.71,0004.68
2023-09-30 08:40:00,SystemResetWarning,0828.3,5.00,000.00,028.9,027.7,000.0,037.2,030.6,18.2,0000.0,0006.79,0020.62,0004.69
2023-09-30 08:41:00,SystemResetWarning,0828.4,5.00,000.00,028.9,027.7,000.0,037.3,030.6,18.2,0000.0,0006.72,0019.36,0004.68
2023-09-30 08:42:00,SystemResetWarning,0828.3,5.00,000.00,028.9,027.7,000.0,037.3,030.6,18.1,0000.0,0006.71,0019.77,0004.68
2023-09-30 08:43:00,SystemResetWarning,0828.4,5.00,000.00,028.9,027.7,000.0,037.3,030.6,18.1,0000.0,0006.73,0020.73,0004.68
2023-09-30 08:44:00,SystemResetWarning,0828.3,5.00,000.00,028.9,027.7,000.0,037.3,030.7,18.2,0000.0,0006.72,0020.51,0004.67
2023-09-30 08:45:00,SystemResetWarning,0828.3,5.00,000.00,028.9,027.8,000.0,037.3,030.7,18.3,0000.0,0006.68,0020.62,0004.66
2023-09-30 08:46:00,SystemResetWarning,0828.3,5.00,000.00,029.0,027.8,000.0,037.3,030.7,18.3,0000.0,0006.63,0020.91,0004.65
2023-09-30 08:47:00,SystemResetWarning,0828.3,4.99,000.00,029.0,027.8,000.0,037.4,030.7,18.5,0000.0,0006.64,0022.32,0004.65
2023-09-30 08:48:00,SystemResetWarning,0828.3,4.99,000.00,029.0,027.8,000.0,037.4,030.7,19.0,0000.0,0006.61,0022.50,0004.65
2023-09-30 08:49:00,SystemResetWarning,0828.3,5.01,000.00,029.0,027.8,000.0,037.4,030.7,18.7,0000.0,0006.61,0021.83,0004.66
2023-09-30 08:50:00,SystemResetWarning,0828.3,5.00,000.00,029.0,027.8,000.0,037.4,030.7,18.6,0000.0,0006.64,0021.22,0004.66
2023-09-30 08:51:00,SystemResetWarning,0828.3,4.99,000.00,029.0,027.0,000.0,037.4,030.7,18.3,0000.0,0006.61,0022.11,0004.65
2023-09-30 08:52:00,SystemResetWarning,0828.3,5.00,000.00,029.0,025.0,000.0,037.3,030.5,18.2,0000.0,0006.58,0022.82,0004.65
2023-09-30 08:53:00,SystemResetWarning,0828.2,5.00,000.00,028.9,024.3,000.0,037.3,030.3,18.3,0000.0,0006.48,0023.03,0004.65
2023-09-30 08:54:00,SystemResetWarning,0828.2,5.01,000.00,028.7,024.4,000.0,037.2,030.0,18.4,0000.0,0006.41,0022.43,0004.65
2023-09-30 08:55:00,SystemResetWarning,0828.2,4.99,000.00,028.6,024.8,000.0,037.2,030.0,18.7,0000.0,0006.37,0021.64,0004.65
2023-09-30 08:56:00,SystemResetWarning,0828.3,5.00,000.00,028.6,025.2,000.0,037.2,030.0,18.7,0000.0,0006.38,0022.39,0004.65
2023-09-30 08:57:00,SystemResetWarning,0828.3,5.00,000.00,028.5,025.5,000.0,037.2,030.1,18.9,0000.0,0006.45,0022.07,0004.66
2023-09-30 08:58:00,SystemResetWarning,0828.3,5.01,000.00,028.5,025.9,000.0,037.2,030.1,18.9,0000.0,0006.48,0021.75,0004.66
2023-09-30 08:59:00,SystemResetWarning,0828.3,5.00,000.00,028.5,026.1,000.0,037.1,030.1,19.1,0000.0,0006.45,0021.35,0004.65
